Location: Gensac
(43.2177°N, 1.1313°E)
Time: 02:25:24
(UTC+00:00)

USA 234 - Pass Details

Date: 08 December 2025
Orbit: 1102 x 1106 km, 123.0° (Epoch: 4 January)

Event Time Altitude Azimuth Distance (km) Brightness Sun altitude
Rises 06:29:31 0° 90° (E) 3,924 7.6 -8.2°
Reaches altitude 10° 06:32:12 10° 82° (E) 2,967 6.5 -7.7°
Maximum altitude 06:38:00 35° 20° (NNE) 1,701 4.3 -6.7°
Drops below altitude 10° 06:43:49 10° 317° (NW) 2,970 4.9 -5.8°
Enters shadow 06:45:08 - 313° (NW) 3,431 5.2 -5.6°
